Weather History for Williston, ND

Change the Weather History Date:

Monday, October 21, 2013

  Actual Average Record
Temperature  
Mean Temperature 33 °F 41 °F  
Max Temperature 40 °F 54 °F 83 °F (1992)
Min Temperature 26 °F 28 °F 11 °F (1930)
Degree Days  
Heating Degree Days 32 24  
Month to date heating degree days 436 413  
Since 1 July heating degree days 622 759  
Cooling Degree Days 0 0  
Month to date cooling degree days 0 0  
Year to date cooling degree days 405 455  
Moisture  
Dew Point 30 °F    
Average Humidity 81    
Maximum Humidity 92    
Minimum Humidity 70    
Precipitation  
Precipitation 0.05 in 0.03 in 0.93 in (1953)
Month to date precipitation 2.01 0.65  
Year to date precipitation 19.80 12.83  
Sea Level Pressure  
Sea Level Pressure 29.98 in    
Wind  
Wind Speed 2 mph (SE)    
Max Wind Speed 9 mph    
Max Gust Speed 12 mph    
Visibility 10 miles    
Events Rain , Snow    
T = Trace of Precipitation, MM = Missing Value Source: NWS Daily Summary

Daily Weather History Graph

Daily Weather History Graph

Search for Another Location

Airport:

Trip Planner

Search our weather history database for the weather conditions in past years. The results will help you decide how hot, cold, wet, or windy it might be!

Date:

Astronomy

Oct. 21, 2013 Rise Set
Actual Time 8:23 AM CDT 6:53 PM CDT
Civil Twilight 7:51 AM CDT 7:25 PM CDT
Nautical Twilight 7:15 AM CDT 8:01 PM CDT
Astronomical Twilight 6:39 AM CDT 8:37 PM CDT
Moon 8:37 PM CDT (10/21) 11:11 AM CDT (10/21)
Length of Visible Light 11h 33m
Length of Day
10h 30m
Waning Gibbous, 92% of the Moon is Illuminated
Oct 21
Waning Gibbous
Oct 26
Last Quarter
Nov 3
New
Nov 9
First Quarter
Nov 17
Full

Hourly Weather History & Observations

Time (CDT) Temp. Windchill Dew Point Humidity Pressure Visibility Wind Dir Wind Speed Gust Speed Precip Events Conditions
12:52 AM 25.0 °F - 21.9 °F 88% 30.07 in 10.0 mi Calm Calm - N/A   Overcast
1:52 AM 28.9 °F - 26.1 °F 89% 30.07 in 10.0 mi Calm Calm - N/A   Overcast
2:52 AM 28.9 °F - 26.1 °F 89% 30.06 in 10.0 mi Calm Calm - N/A   Overcast
3:52 AM 30.0 °F - 25.0 °F 82% 30.06 in 10.0 mi Calm Calm - N/A   Overcast
4:52 AM 30.0 °F - 26.1 °F 85% 30.05 in 10.0 mi Calm Calm - N/A   Overcast
5:10 AM 30.2 °F - 26.6 °F 86% 29.98 in 10.0 mi Calm Calm - N/A   Overcast
5:52 AM 30.9 °F - 27.0 °F 85% 30.03 in 10.0 mi Calm Calm - N/A   Overcast
6:27 AM 30.2 °F - 26.6 °F 86% 29.95 in 10.0 mi Calm Calm - N/A   Overcast
6:52 AM 30.9 °F - 27.0 °F 85% 30.01 in 10.0 mi Calm Calm - N/A   Overcast
7:52 AM 32.0 °F - 28.0 °F 85% 30.01 in 10.0 mi Calm Calm - N/A   Overcast
8:16 AM 33.8 °F - 26.6 °F 75% 29.93 in 10.0 mi Calm Calm - N/A   Overcast
8:49 AM 33.8 °F - 28.4 °F 81% 29.94 in 10.0 mi Calm Calm - N/A   Overcast
8:52 AM 33.1 °F - 28.0 °F 82% 30.02 in 10.0 mi Calm Calm - N/A   Overcast
9:52 AM 34.0 °F 29.8 °F 27.0 °F 75% 30.02 in 10.0 mi SE 4.6 mph - N/A   Overcast
9:58 AM 33.8 °F 29.6 °F 26.6 °F 75% 29.94 in 10.0 mi ESE 4.6 mph - N/A   Overcast
10:52 AM 36.0 °F 33.3 °F 26.1 °F 67% 30.02 in 10.0 mi SE 3.5 mph - N/A   Overcast
11:52 AM 37.0 °F 32.4 °F 27.0 °F 67% 30.01 in 8.0 mi SE 5.8 mph - 0.00 in Snow Light Snow
12:52 PM 37.0 °F 31.6 °F 30.0 °F 76% 29.99 in 9.0 mi SE 6.9 mph - 0.00 in   Overcast
1:52 PM 36.0 °F 30.3 °F 32.0 °F 86% 29.96 in 7.0 mi SE 6.9 mph - 0.02 in Snow Light Snow
2:52 PM 36.0 °F 30.3 °F 33.1 °F 89% 29.93 in 9.0 mi SSE 6.9 mph - 0.03 in Rain Light Rain
3:05 PM 35.6 °F 32.8 °F 33.8 °F 93% 29.86 in 10.0 mi SSE 3.5 mph - 0.00 in Rain Light Rain
3:52 PM 37.0 °F 32.4 °F 35.1 °F 93% 29.92 in 10.0 mi SE 5.8 mph - 0.00 in   Overcast
4:52 PM 37.0 °F 33.3 °F 35.1 °F 93% 29.92 in 6.0 mi East 4.6 mph - 0.00 in Rain Light Rain
5:52 PM 37.9 °F - 36.0 °F 93% 29.93 in 10.0 mi Calm Calm - 0.00 in   Overcast
6:40 PM 37.4 °F - 35.6 °F 93% 29.88 in 10.0 mi Calm Calm - N/A   Overcast
6:52 PM 37.0 °F - 35.1 °F 93% 29.96 in 10.0 mi Calm Calm - N/A   Overcast
7:52 PM 37.0 °F - 35.1 °F 93% 29.97 in 10.0 mi Calm Calm - N/A   Overcast
8:43 PM 37.4 °F - 35.6 °F 93% 29.92 in 10.0 mi Calm Calm - N/A   Overcast
8:52 PM 37.0 °F - 35.1 °F 93% 29.98 in 10.0 mi Calm Calm - N/A   Overcast
9:52 PM 37.9 °F - 36.0 °F 93% 29.99 in 10.0 mi Calm Calm - 0.00 in   Overcast
10:52 PM 39.0 °F 36.8 °F 37.0 °F 93% 30.00 in 10.0 mi WNW 3.5 mph - 0.00 in   Overcast
11:19 PM 39.2 °F 37.0 °F 37.4 °F 93% 29.95 in 10.0 mi NW 3.5 mph - N/A   Overcast
11:52 PM 39.9 °F 36.7 °F 37.0 °F 89% 30.01 in 10.0 mi NW 4.6 mph - N/A   Overcast